Hourly Data Report for August 12, 2022

TORONTO CITY
ONTARIO
Current Station Operator: ECCC - MSC

43°40'00.000" N
79°24'00.000" W
112.50 m
6158355
71508
XTO

Download Data

Hourly Data (August 2022)
Hourly Data Report for August 12, 2022
TIME
LST
Temp Definition
°C
Dew Point Definition
°C
Rel Hum Definition
%
Precip. Amount Definition
mm

Wind Dir Definition
10's deg

Wind Spd Definition
km/h
Visibility Definition
km
Stn Press Definition
kPa
Hmdx Definition


Wind Chill Definition


Weather Definition


00:00 17.2 9.9 62 0.0       100.62     LegendNANA
01:00 16.7 10.5 67 0.0       100.61     LegendNANA
02:00 16.4 10.9 70 0.0       100.61     LegendNANA
03:00 15.7 11.8 77 0.0       100.63     LegendNANA
04:00 15.5 12.6 83 0.0       100.67     LegendNANA
05:00 16.5 11.8 74 0.0       100.71     LegendNANA
06:00 16.4 10.3 67 0.0       100.78     LegendNANA
07:00 17.5 10.3 63 0.0       100.79     LegendNANA
08:00 19.2 10.7 58 0.0       100.84     LegendNANA
09:00 21.3 6.1 37 0.0       100.86     LegendNANA
10:00 22.9 6.3 34 0.0       100.87     LegendNANA
11:00 24.2 5.1 29 0.0       100.87     LegendNANA
12:00 25.4 6.2 29 0.0       100.83 25   LegendNANA
13:00 25.7 5.7 28 0.0       100.78 25   LegendNANA
14:00 25.6 4.6 26 0.0       100.76 25   LegendNANA
15:00 26.1 5.5 27 0.0       100.72 26   LegendNANA
16:00 25.6 3.0 23 0.0       100.71     LegendNANA
17:00 24.5 3.7 26 0.0       100.68     LegendNANA
18:00 23.9 3.5 27 0.0       100.68     LegendNANA
19:00 22.6 0.7 23 0.0       100.68     LegendNANA
20:00 21.6 -1.9 21 0.0       100.69     LegendNANA
21:00 19.8 0.0 27 0.0       100.74     LegendNANA
22:00 17.6 1.7 34 0.0       100.76     LegendNANA
23:00 17.7 4.2 41 0.0       100.79     LegendNANA

Notes on Data Quality.

Legend

  • E = Estimated
  • M = Missing
  • NA = Not Available*
  • [empty] = Indicates an unobserved value
Date modified: